Regional Weather Roundup
Issued by NWS State College, PA

Home | Current Version | Previous Version | Text Only | Print | Product List | Glossary On
Versions: 1 2 3 4 5 6 7 8 9 10 11 12 13 14 15 16 17 18 19 20 21 22 23 24 25 26 27 28 29 30 31 32 33 34 35 36 37 38 39 40 41 42 43 44 45 46 47 48 49 50
000
ASUS41 KCTP 010310
RWRCTP

REGIONAL WEATHER ROUNDUP
NATIONAL WEATHER SERVICE STATE COLLEGE PA
1100 PM EDT TUE SEP 30 2014

Note: "fair" indicates few or no clouds below 12,000 feet with no
significant weather and/or obstructions to visibility.

* = STATION THAT DOES NOT REPORT PRECIPITATION /E.G. RAIN...SNOW...ETC/
    THUNDER OR FOG.

PAZ002>004-007>009-013>016-020>023-029>032-010400-
WESTERN PENNSYLVANIA

CITY           SKY/WX    TMP DP  RH WIND       PRES   REMARKS
ERIE           PTCLDY    57  54  89 S5        29.98R
MEADVILLE      FOG       55  54  96 CALM      30.00R VSB 1/4
FRANKLIN*      CLOUDY    55  52  88 N3        30.00R
NEW CASTLE       N/A     58  57  96 CALM      29.99R
BEAVER COUNTY  NOT AVBL
BUTLER*        PTCLDY    55  54  94 N6        29.98R
PITTSBURGH INT CLOUDY    60  58  92 N6        29.96R
PITTSBURGH     CLOUDY    57  53  86 NW5       29.95R
INDIANA*       MOCLDY    55  54  94 CALM      30.00R
LATROBE        CLEAR     55  55 100 CALM      29.96S
WASHINGTON CO* PTCLDY    57  54  88 CALM      29.98R
$$

PAZ004>006-010>012-017>019-024>028-033>037-041-042-045-046-049>053-010400-
CENTRAL PENNSYLVANIA

CITY           SKY/WX    TMP DP  RH WIND       PRES   REMARKS
BRADFORD       PTCLDY    54  51  90 CALM      29.99S
DUBOIS         PTCLDY    54  52  93 N5        29.97R
CLEARFIELD     FOG       56  56 100 E6        29.97R VSB 1/2
JOHNSTOWN      MOCLDY    57  50  77 SW5       29.98R
ALTOONA        MOCLDY    57  57 100 CALM      29.98R FOG
STATE COLLEGE  FOG       57  57  99 CALM      29.97R VSB 3/4
WILLIAMSPORT   CLOUDY    63  60  90 CALM      29.93S
SELINSGROVE    CLOUDY    63  57  81 S3        29.96R
FT INDIANTOWN  LGT RAIN  63  61  94 VRB3      29.98R
CAPITAL CITY   RAIN      61  60  97 CALM      29.97F FOG
HARRISBURG     TSTM      62  60  93 W9        29.96S
YORK           TSTM      60  58  92 CALM      29.97F FOG
$$

PAZ038>040-043-044-047-048-054-055-060>062-067>071-010400-
EASTERN PENNSYLVANIA

CITY           SKY/WX    TMP DP  RH WIND       PRES   REMARKS
SCRANTON       CLOUDY    63  57  81 NE3       29.98R
MOUNT POCONO   CLOUDY    59  56  89 SE6       30.01R
ALLENTOWN      CLOUDY    62  58  86 N3        29.98R
QUAKERTOWN*    MOCLDY    63  59  88 CALM      29.99S
READING        CLOUDY    66  57  72 E3        29.97R
LANCASTER      CLOUDY    66  59  78 E3        29.97R
COATESVILLE    MOCLDY    63  59  88 E6        29.98S
POTTSTOWN      MOCLDY    61  57  87 CALM      29.99R
BLUE BELL      PTCLDY    59  57  94 CALM      29.96S
DOYLESTOWN     PTCLDY    60  58  92 CALM      29.97S
WILLOW GROVE   NOT AVBL
NORTH PHILA    PTCLDY    63  56  78 NE5       29.98S
PHILADELPHIA   MOCLDY    64  59  83 E9        29.96F
$$


USA.gov is the U.S. government's official web portal to all federal, state and local government web resources and services.